Regional Weather Roundup
Issued by NWS Midland/Odessa, TX

Skip options and go directly to product.
Home | Oldest Version | Previous Version | Current Version | All | Text Only | Save Text | Print | Product List | Glossary Off

Skip product version selection by date and time.   

228
ASUS44 KMAF 271610
RWRMAF
MIDLAND AREA WEATHER ROUNDUP
NATIONAL WEATHER SERVICE MIDLAND TX
1100 AM CDT FRI MAY 27 2016

...IN SOUTHWEST TEXAS AND SOUTHEAST NEW MEXICO...

CITY           SKY/WX    TMP DP  RH WIND       PRES   REMARKS
ALPINE         SUNNY     75  18  11 W15G22    30.04S
ANDREWS        FAIR      76  28  17 W8        29.87S
ARTESIA        SUNNY     77  27  15 NW17      29.87F
BIG SPRING     SUNNY     75  37  24 W3        29.84S
CARLSBAD       SUNNY     78  23  13 W14       29.86F
DRYDEN           N/A     87  26  11 W13G18    29.83F
FORT STOCKTON  SUNNY     82  22  11 NW17G28   29.89S
GUAD PASS      NOT AVBL
HOBBS          SUNNY     75  23  14 SW12G18   29.88F
MARFA          SUNNY     72  18  13 W21G28    30.03S
MIDLAND AIRPK  SUNNY     82  22  10 W12G20    29.85S
MIDLAND INTL   SUNNY     82  22  11 NW14      29.84S
ODESSA         SUNNY     81  21  11 NW14G21   29.86S
PECOS          SUNNY     82  22  11 W22G28    29.86F
PRESIDIO       FAIR      81  20  10 W12G18    29.93F
SEMINOLE       SUNNY     74  29  19 W10       29.87F
SNYDER           N/A     72  44  35 SW9       29.80S
WINK           SUNNY     80  21  11 NW13      29.85F
$$
...OTHER STATIONS IN TEXAS...

CITY           SKY/WX    TMP DP  RH WIND       PRES   REMARKS
ABILENE        CLOUDY    73  67  81 S16       29.78S
AMARILLO       SUNNY     65  42  43 NW14      29.81R
AUSTIN         LGT RAIN  67  66  97 NE16      29.79R
BROWNSVILLE    MOSUNNY   88  77  69 S23G32    29.75F HX 100
CORPUS CHRISTI PTSUNNY   86  78  77 S18       29.73F
DALLAS FTW     TSTM      67  64  90 SE20G32   29.76F
DEL RIO        SUNNY     85  62  46 NW12      29.77R
EL PASO        SUNNY     72  23  16 W13       29.95S
HOUSTON INT    CLOUDY    76  73  91 SE9       29.78F
LUBBOCK        MOSUNNY   71  43  36 SW6       29.81F
SAN ANGELO     SUNNY     78  64  61 SW7       29.80R
SAN ANTONIO    PTSUNNY   85  74  69 S14       29.75S
WACO           LGT RAIN  65  63  93 E12       29.84F
WICHITA FALLS  NOT AVBL
$$
...OTHER LOCATIONS IN NEW MEXICO...

CITY           SKY/WX    TMP DP  RH WIND       PRES   REMARKS
ALAMAGORDO     SUNNY     68  25  19 N7        29.95F
ALBUQUERQUE    MOSUNNY   61  29  29 VRB3      29.97S
CANNON AFB     SUNNY     66  29  24 W14G21    29.85F
CLOVIS         SUNNY     64  39  39 SW9       29.85F
HOLLOMAN AFB   SUNNY     70  25  18 NW5       29.93F
ROSWELL        SUNNY     76  25  15 W10G16    29.86F
RUIDOSO          N/A     59  23  25 NW18G29   30.01F
SANTA FE       SUNNY     58  32  37 VRB5      29.95F
TRUTH OR CONSE SUNNY     68  27  21 NW12G22   29.96F
TUCUMCARI      SUNNY     63  38  39 S3        29.84F
$$

USA.gov is the U.S. government's official web portal to all federal, state and local government web resources and services.